Main page
METAR-TAF:

METAR-TAF

Airports :

Srinagar, India

Srinagar International Airport

latitude: 33-59-14N, longitude: 074-46-27E, elevation: 1655 m

Current weather observation

The report was made 4 hours and 46 minutes ago, at 14:30 UTC
Wind 3 kt from the South/Southwest
Temperature 14°C
Humidity 51%
Pressure 1015 hPa
Visibility: 5000 m
Clear sky
smoke

METAR: VISR 211430Z 20003KT 5000 FU SKC 14/04 Q1015 NOSIG

Time: 00:46 (19:16 UTC)


TAF: missing

Weather observations and forecasts of more than 4000 airports (METAR and TAF reports).

The available stations are represented by yellow and red dots on the map.

Hover mouse over dot to see the name of the station.

Then click to see weather observations and forecasts.

To change the map : click on the green buttons with a black cross to zoom in, on the green button with a dash to zoom out, or on the green arrows for adjacent maps.


METAR-TAF: